Location: Ferchesar
(52.6477°N, 12.4298°E)
Time: 02:51:21
(UTC+01:00)

Vanguard 1 - Pass Details

Date: 07 December 2021
Orbit: 652 x 3830 km, 34.2° (Epoch: 21 January)

Event Time Altitude Azimuth Distance (km) Brightness Sun altitude
Exits shadow 03:02:28 42° 182° (S) 4,398 13.0 -44.5°
Drops below altitude 10° 03:16:31 10° 131° (SE) 5,469 14.1 -42.5°
Sets 03:20:18 0° 125° (SE) 6,107 14.5 -41.9°
